Regional Weather Roundup
Issued by NWS Wakefield, VA

Home | Current Version | Previous Version | Graphics & Text | Print | Product List | Glossary On
Versions: 1 2 3 4 5 6 7 8 9 10 11 12 13 14 15 16 17 18 19 20 21 22 23 24 25 26 27 28 29 30 31 32 33 34 35 36 37 38 39 40 41 42 43 44 45 46 47 48 49 50
000
ASUS41 KAKQ 312215
RWRAKQ

REGIONAL WEATHER ROUNDUP
NATIONAL WEATHER SERVICE WAKEFIELD VA
600 PM EDT FRI JUL 31 2015

Note: "fair" indicates few or no clouds below 12,000 feet with no
significant weather and/or obstructions to visibility. * = Denotes
station may not report precipitation (e.g., rain,snow,etc.),
thunder or fog.

VAZ042-051-052>054-056-312300-
NORTHERN VIRGINIA

CITY           SKY/WX    TMP DP  RH WIND       PRES   REMARKS
WASH NATIONAL  MOSUNNY   91  60  35 NW6       29.87F
DULLES         MOSUNNY   87  58  37 NW8       29.87F
FORT BELVOIR   SUNNY     88  60  39 W7        29.86F
QUANTICO       NOT AVBL
FREDERICKSBRG* SUNNY     89  59  36 NW7       29.87F
STAFFORD*      SUNNY     86  59  40 W5        29.92F
WARRENTON      SUNNY     89  63  42 W3        29.88F
CULPEPER*      SUNNY     85  62  44 N3        29.89F
MANASSAS*      SUNNY     88  57  35 NW9       29.88F
LEESBURG*      SUNNY     88  61  40 W5        29.89F
WINCHESTER     SUNNY     88  55  33 W5        29.89F
FRONT ROYAL*   FAIR      84  61  45 NW3       29.89F
LURAY*         CLOUDY    90  59  35 N6        29.91F
$$

VAZ048-049-060>072-079>083-312300-
CENTRAL AND SOUTH CENTRAL VIRGINIA

CITY           SKY/WX    TMP DP  RH WIND       PRES   REMARKS
RICHMOND       MOSUNNY   89  58  34 NW9       29.88S
CHESTERFIELD*  FAIR      88  55  33 NW10      29.90F
PETERSBURG*    SUNNY     89  67  49 W5        29.89F
HANOVER        SUNNY     87  62  43 CALM      29.89F
TAPPAHANNOCK*  SUNNY     86  58  38 CALM      29.89S
QUINTON*       FAIR      86  63  45 CALM      29.87F
CHARLOTTSVILLE SUNNY     86  59  39 S3        29.90F
GORDONSVILLE*  FAIR      86  61  42 CALM      29.89F
ORANGE*        SUNNY     88  61  40 CALM      29.91F
LOUISA*        SUNNY     88  59  37 W3        29.89F
BUMPASS*       FAIR      85  60  42 NW3       29.89F
FARMVILLE*     SUNNY     89  52  28 W6        29.89F
CREWE*         FAIR     N/A N/A N/A NW7       29.90S
FORT PICKETT*  FAIR      88  58  36 NW7       29.89F
CHASE CITY*    FAIR      88  65  46 N5        29.90F
CLARKSVILLE*   FAIR      86  63  45 CALM      29.90F
SOUTH HILL*    SUNNY     86  62  44 CALM      29.95F
LAWRENCEVILLE* FAIR      88  61  40 NW6       29.88F
EMPORIA*       MOSUNNY   86  64  48 NW6       29.89F
$$

VAZ088>098-312300-
SOUTHEAST VIRGINIA

CITY           SKY/WX    TMP DP  RH WIND       PRES   REMARKS
NORFOLK        PTSUNNY   84  62  47 NE6       29.87F
VIRGINIA BEACH MOSUNNY   89  63  41 N9        29.86F
NORFOLK NAVAL  MOSUNNY   84  64  50 NE8       29.88F
WEST POINT*    SUNNY     89  57  34 NW5       29.88F
SALUDA*        FAIR      85  65  49 N8        29.87F
NEWPORT NEWS   SUNNY     85  65  51 N7        29.87F
LANGLEY AFB    SUNNY     86  65  49 NW8       29.86F
FORT EUSTIS    SUNNY     88  62  41 NW7       29.85F
WILLIAMSBURG*  SUNNY     90  72  55 N5        29.88S HX  96
HR EXEC AP*    FAIR      88  68  51 CALM      29.89S
FRANKLIN*      PTSUNNY   87  64  46 N5        29.88S
WAKEFIELD      SUNNY     89  64  43 CALM      29.87F
$$

VAZ020-022-025-037-045-312300-
WEST CENTRAL AND SOUTHWEST VIRGINIA

CITY           SKY/WX    TMP DP  RH WIND       PRES   REMARKS
STAUNTON*      MOSUNNY   87  55  33 CALM      29.95S
WAYNESBORO*    FAIR      83  59  44 W3        29.95F
HOT SPRINGS VA MOSUNNY   74  55  50 W10       30.08S
LYNCHBURG      SUNNY     85  57  38 CALM      29.95S
DANVILLE       SUNNY     87  61  41 N6        29.92F
SOUTH BOSTON*  FAIR      88  58  36 CALM      29.90F
MARTINSVILLE   SUNNY     89  53  28 NW8       29.96F
ROANOKE        MOSUNNY   87  54  32 NW12      29.97S
BLACKSBURG     SUNNY     82  56  40 W7        30.04F
DUBLIN*          N/A     82  56  41 NW8       30.03F
MARION*        SUNNY     78  55  45 NW9       30.08F
HILLSVILLE*    MOSUNNY   79  56  45 NW9       30.04F
RICHLANDS*     FAIR      76  58  52 NW8       30.08S
WISE*          SUNNY     81  50  34 NW5       30.10F
ABINGDON*      SUNNY     82  51  33 N7        30.05S
$$

MDZ021>025-VAZ099-100-312300-
SOUTHERN MARYLAND AND THE DELMARVA PENINSULA

CITY           SKY/WX    TMP DP  RH WIND       PRES   REMARKS
PATUXENT RIVER MOSUNNY   85  62  46 W9        29.86F
BAY BRIDGE APT   N/A     88  55  33 CALM      29.85F
LEONARDTOWN    SUNNY     86  59  39 W8        29.88S
DOVER          MOSUNNY   86  63  45 W13       29.83F
GEORGETOWN     SUNNY     87  58  37 VRB6      29.85F
EASTON         SUNNY     90  61  37 N6        29.90S
CAMBRIDGE      SUNNY     86  59  39 CALM      29.85F
SALISBURY      SUNNY     87  60  40 NW7       29.85F
OCEAN CITY     MOSUNNY   83  61  47 S8        29.85S
WALLOPS ISLAND SUNNY     84  65  52 SE6       29.86F
ACCOMACK*      SUNNY     86  79  79 NW5       29.86F HX  99
$$

NCZ012>017-030>032-312300-
NORTH CENTRAL AND EASTERN NORTH CAROLINA

CITY           SKY/WX    TMP DP  RH WIND       PRES   REMARKS
ROANOKE RAPIDS FAIR      88  63  42 NW8       29.88S
RALEIGH        MOSUNNY   88  64  44 VRB6      29.90S
ELIZABETH CITY MOSUNNY   85  67  54 E8        29.88S
AHOSKIE*       SUNNY     86  64  46 N5        29.88S
EDENTON*         N/A     85  67  55 SE10      29.87F
CURRITUCK*     SUNNY     85  61  44 E6        29.88F
KILL DEVIL HLS SUNNY     87  64  46 NE5       29.88R
MANTEO         SUNNY     83  64  50 NE9       29.89S
CAPE HATTERAS  MOSUNNY   84  74  71 N8        29.88R
TARBORO*         N/A     92  63  38 N5        29.88S
GOLDSBORO      MOSUNNY   91  67  45 N5        29.85F
WASHINGTON     SUNNY     87  73  63 E7        29.88R
GREENVILLE     MOSUNNY   91  66  43 NE6       29.89S
NEW BERN       MOSUNNY   88  74  63 E5        29.88S HX  96
WILMINGTON     TSTM      78  74  87 S15       29.88R
$$

VAZ048-312300-
ELSEWHERE

CITY           SKY/WX    TMP DP  RH WIND       PRES   REMARKS
HARRISBURG PA  MOSUNNY   87  60  40 W7        29.84F
BALTIMORE      MOSUNNY   88  59  37 NW8G16    29.85F
ANNAPOLIS      SUNNY     87  57  35 W7        29.85F
ANDREWS AFB    MOSUNNY   88  56  34 W10       29.86F
PHILADELPHIA   MOSUNNY   89  54  30 NW8       29.83F
HENDERSON NC   SUNNY     86  56  35 NW5       29.91F
GREENSBORO     MOSUNNY   87  56  34 CALM      29.93F
ROCKY MOUNT    SUNNY     92  63  38 NW9       29.87F
$$

VAZ100-312300-
MARINE

STATION/POSITION TIME  TEMP    WIND        PRES    WAVE   SWELL
                       AIR SEA DIR/SP/G            HT/PER HT/PER
                 (UTC) (F)     (DEG/KT/KT) (MB)    (FT/S) (FT/S)
BRANDYWINE LGT   2100   83 79  230/  2/  3 1011.2F
CAPE MAY NJ      2100   84 82  290/  5/  6 1010.6F
LEWES DE         2100   82 77   20/  6/  7 1010.9F
15NM E FENWICK I 2150   82 80   20/  2/  4 1010.8F   3/ 7   3/ 7
OCEAN-CITY-INLET 2100   83 82  100/  6/  8 1010.2S
THOMAS POINT MD  2200   85 82  320/  6/ 10 1011.4
GOOSES REEF MD   2200   86 84  170/  2/  2 1012.1F
COVE POINT MD    2100   83     190/  4/  5 1012.1F
SOLOMONS ISLAND  2100      83                N/A
BISHOPS HEAD MD  2100   85 85  280/ 10/ 11 1010.6F
PINEY POINT MD   2100          320/ 13/ 14   N/A
POTOMAC MD       2200   86 84  300/ 10/ 12 1010.1F   1
CAMBRIDGE MD     2100   85 84  340/  5/  7 1010.5F
LEWISETTA VA     2100   86 83  330/  7/  9 1011.2F
RAPPAHANNOCK LGT 2100           10/  5/  7 1012.2F
STINGRAY PT      2200   85 86   60/  6/ 10 1011.5F   1
YORK RVR RNG VA  2100   85      10/  7/  9 1011.1F
YORKTOWN VA      2100   85 85  320/ 10/ 12 1011.5F
JAMESTOWN VA     2200   87 87  300/  4/  4   N/A
DOMINION TERM VA 2100   83     120/  6/ 10 1011.6F
KIPTOPEKE VA     2100      84  360/  7/ 12   N/A
CHES BAY BRIDGE  2100   82 82   10/  9/ 11 1011.3F
CAPE HENRY VA    2100   83     350/ 10/ 11   N/A
CHESAPEAKE LGHT  2100   81     320/  2/  2 1012.5S
WILLOUBY STN VA  2100   83      60/  8/  9 1012.6F
CAPE HENRY BUOY  2128      82                N/A     3/ 9
1ST LANDING BUOY 2200      81              1011.2F   2/ 4
CAPE CHARLES BUO 2126      82                N/A     3/10   2/10
OFFSHORE WE BUOY 2111      82                N/A     3/ 8   3/ 8
64NM E OF VA BCH 2150   82 82   20/ 10/ 12 1010.7F   4/ 9   3/ 9
DUCK PIER NC     2100   81 76   30/ 10/ 12 1011.1S
44100 DUCK FRF   2124      81                N/A     4/ 5   2/11
44056 DUCK FRF   2111      80                N/A     4/ 4   2/11
OREGON INLET NC  2100   83 86   10/ 10/ 14 1011.8S
HATTERAS NC      2100   83 83   20/  9/ 13 1011.4S
DIAMOND SHLS NC  2150   82 86  360/  8/ 10 1012.0R   4/ 8   3/ 8
CAPE LOOKOUT NC  2200   80      70/ 15/ 17 1012.2R
$$


USA.gov is the U.S. government's official web portal to all federal, state and local government web resources and services.